Regional Weather Roundup
Issued by NWS Sioux Falls, SD

Home | Current Version | Previous Version | Text Only | Print | Product List | Glossary Off
Versions: 1 2 3 4 5 6 7 8 9 10 11 12 13 14 15 16 17 18 19 20 21 22 23 24 25 26 27 28 29 30 31 32 33 34 35 36 37 38 39 40 41 42 43 44 45 46 47 48 49 50

000
ASUS43 KFSD 211610
RWRFSD

WEATHER ROUNDUP FOR SE SOUTH DAKOTA/SW MINNESOTA/NW IOWA
NATIONAL WEATHER SERVICE SIOUX FALLS SD
1100 AM CDT SAT OCT 21 2017

NOTE: "FAIR" INDICATES FEW OR NO CLOUDS BELOW 12,000 FEET WITH NO
SIGNIFICANT WEATHER AND OR OBSTRUCTIONS TO VISIBILITY.


SDZ038>040-050-052>070-211700-
SOUTHEAST SOUTH DAKOTA

CITY           SKY/WX    TMP DP  RH WIND       PRES   REMARKS
BROOKINGS      CLOUDY    66  61  84 S16       29.52S
CHAMBERLAIN    CLOUDY    55  42  61 NW24G33   29.73R
HURON          CLOUDY    54  43  66 NW17      29.59R
MADISON        CLOUDY    59  57  94 W21G26    29.55R
MITCHELL       CLOUDY    56  42  59 NW20      29.62R
SIOUX FALLS    PTSUNNY   70  64  81 S18G30    29.54R
WINNER         LGT RAIN  49  41  74 NW25G32   29.76R
YANKTON        CLOUDY    61  47  59 NW21G30   29.59R
$$

MNZ071-072-080-081-089-090-097-098-211700-
SOUTHWEST MINNESOTA

CITY           SKY/WX    TMP DP  RH WIND       PRES   REMARKS
FAIRMONT       CLOUDY    63  60  90 S23G31    29.66S
JACKSON        CLOUDY    63  59  88 S20G25    29.65S
LUVERNE        CLOUDY    68  59  73 S16G24    29.57R
MARSHALL       PTSUNNY   71  62  73 S31       29.52F
MONTEVIDEO     CLOUDY    66  61  82 S10G17    29.53S
PIPESTONE      PTSUNNY   66  61  82 S16       29.55S
REDWOOD FALLS  CLOUDY    69  60  73 S24G32    29.57S
TRACY          CLOUDY    68  63  84 S24G30    29.57S
WORTHINGTON    CLOUDY    65  62  90 S17G24    29.61R
$$

IAZ001>003-012>014-020>022-031-032-NEZ013-014-SDZ071-211700-
NORTHWEST IOWA

CITY           SKY/WX    TMP DP  RH WIND       PRES   REMARKS
CHEROKEE       CLOUDY    67  63  86 S21G28    29.63S
DENISON        CLOUDY    66  63  88 S20G30    29.68S
ESTHERVILLE    CLOUDY    61  61 100 S21G29    29.66S
LE MARS        CLOUDY    72  63  73 S26G33    29.58S
ORANGE CITY    PTSUNNY   70  64  83 S18G28    29.59S
SHELDON        CLOUDY    68  63  83 S17G31    29.59S
SIOUX CITY     CLOUDY    69  63  81 S13       29.60R
SPENCER        CLOUDY    65  61  87 S21       29.64S
STORM LAKE     PTSUNNY   64  61  88 S23G31    29.65F
$$

ABBREVIATIONS USED IN REMARKS
   TC - TEMPERATURE IN CELSIUS
  WCI - WIND CHILL INDEX
   HX - HEAT INDEX
  VSB - VISIBILITY





USA.gov is the U.S. government's official web portal to all federal, state and local government web resources and services.